Showing default

COSMOS 2514 (GLONASS), 41330

Orbit data source: Space-Track

COSMOS 2514 (GLONASS), 41330 is a Commonwealth of Independent States-origin payload satellite in MEO that was launched on Sun, 07 Feb 2016 UTC via a SOYUZ-2-1B launch vehicle from the Plesetsk Missile And Space Complex (PKMTR). Payload-class satellites include a variety of spacecraft equipped with specific instruments for various scientific and technological missions. These include communications satellites like Starlink; space stations such as the ISS; scientific satellites like the Hubble; Earth observation satellites from companies like Planet Labs, Umbra, and HawkEye 360; GPS; miniature CubeSats for education and research; and military/defense satellites.

Loading next visibility...
Identifier
41330, 2016-008A
Orbit
MEO
Country
Flag of CISCIS
Related business
Manufacturer
Resehetnev ISS
Mission
Operational Defense Navigation
Bus & Motor
URAGAN, Unknown motor
Mass
1,450 kg wet, ~1,200 kg dry
Launch date (UTC)
2016-02-07 (10 years ago)
Launch vehicle
SOYUZ-2-1B
Launch site
Plesetsk Missile And Space Complex (PKMTR)
Object type
Payload
Rocket body
Debris
Shape & HBR
Cyl + 1 Ant + 2 Pan, 3.9 m
Radar Cross Section
8.467 m², Large (>1 m²)

Expand to show TLE details & history
Last TLE update: 3 days ago

TLE from 3 days ago
0 COSMOS 2514 (GLONASS)
1 41330U 16008A   26170.63146802 -.00000059  00000-0  00000-0 0  9997
2 41330  65.0201 312.9226 0011376 198.2261 161.7251  2.13102571 80675
Epoch: 2026-06-19T15:09Z
TLE epoch observation values (Epoch: 2026-06-19T15:09:18.836Z)
Latitude
0.00005°
Longitude
177.72156°
Altitude
19,157.945 km
Speed
3.949 km/s
True Right ascension
20h 51m 37s
True Declination
0° 00' 00"
Sunlit
Object was in daylight at epoch
Visualization orbit readout
Latitude
Unknown
Longitude
Unknown
Altitude
Unknown
Speed
Unknown
Apparent Right ascension
Unknown
Apparent Declination
Unknown
Sunlit
N/A
Visualization observer readout
Local Sidereal Time
21:23:25
Azimuth
Unknown
Elevation
Unknown
Doppler factor
Unknown
Orbital elements
Apogee altitude
19,158.474 km
Perigee altitude
19,100.439 km
Semi-major axis
25,507.593 km
Eccentricity
0.00114
Inclination
65.0201°
RAAN
312.9226°
Arg. of periapsis
198.2261°
True anomaly
161.76592°
Mean anomaly
161.7251°
Eccentric anomaly
161.74552°
Mean motion
0.53277 °/min
Orbital period
675.71 mins
BSTAR
0
Loading maneuver chart data...
Computing Atmospheric mass density...
Loading historical data...
Loading historical data...
Loading historical data...
Loading historical data...
Loading historical data...
Loading historical data...
Loading historical data...
Other satellites on launch #8 in the year 2016 (2016-02-07 UTC)

Documentation

Showing up to 5 results
|